Regional Weather Roundup
Issued by NWS Bismarck, ND

Home | Current Version | Previous Version | Text Only | Print | Product List | Glossary On
Versions: 1 2 3 4 5 6 7 8 9 10 11 12 13 14 15 16 17 18 19 20 21 22 23 24 25 26 27 28 29 30 31 32 33 34 35 36 37 38 39 40 41 42 43 44 45 46 47 48 49 50
000
ASUS43 KBIS 230102
RWRBIS

NWR BROADCAST TEXT
NATIONAL WEATHER SERVICE BISMARCK ND
800 PM CDT FRI JUL 22 2016

NOTE: "FAIR" INDICATES FEW OR NO CLOUDS BELOW 12,000 FEET WITH NO
SIGNIFICANT WEATHER AND/OR OBSTRUCTIONS TO VISIBILITY.


CITY           SKY/WX    TMP DP  RH WIND       PRES   REMARKS
WILLISTON      SUNNY     85  60  42 E21       29.85F
MINOT          SUNNY     81  64  56 E14G21    29.94S
MINOT AFB      SUNNY     80  63  57 E14       29.93S
BISMARCK       CLOUDY    76  67  73 SW13      29.99R THUNDER
DICKINSON      TSTM      76  68  76 SE22      29.91R
GARRISON         N/A     81  67  62 E16       29.94R
HETTINGER ARPT CLOUDY    75  63  66 E5        29.89F
JAMESTOWN      CLOUDY    77  71  82 SE7       29.94F
CARRINGTON     FAIR      79  66  65 E10       29.99R
HAZEN          MOCLDY    82  70  65 SE14G22   29.97R
OAKES            N/A    N/A N/A N/A MISG        N/A
STANLEY        FAIR      79  63  57 E17G24    29.94F
$$

CITY           SKY/WX    TMP DP  RH WIND       PRES   REMARKS
GRAND FORKS    CLOUDY    81  64  56 E5        29.97R
GRAND FORKS AF CLOUDY    80  64  56 E7        29.97S
DEVILS LAKE    CLOUDY    78  66  66 E10       29.98S
FARGO          SUNNY     82  68  62 E7        29.92F
CAVALIER       FAIR      81  64  57 E3        29.96S
GRAFTON        FAIR      79  68  69 E5        29.99R
GWINNER        FAIR      81  73  78 E6        29.94S
LANGDON        FAIR      79  64  61 E6        30.00S
ROLLA            N/A     75  63  64 SE8       30.01R
$$

CITY           SKY/WX    TMP DP  RH WIND       PRES   REMARKS
ABERDEEN       CLOUDY    82  74  76 CALM      29.95R
MOBRIDGE       LGT RAIN  78  63  59 NE18      29.90R
BUFFALO          N/A     87  55  33 SE20      29.79F
RAPID CITY     CLOUDY    84  57  39 SW18G28   29.92F
GLASGOW        CLOUDY    85  59  41 E14       29.74F
SIDNEY         SUNNY     88  67  49 E16G22    29.80F HX  91
WOLF POINT     PTSUNNY   91  57  31 E13       29.74F
GLENDIVE       CLOUDY    90  72  55 E23G29    29.80F HX  97
MILES CITY     SUNNY    100  57  23 NE13      29.74F HX  99
BAKER          CLOUDY    78  64  61 E17       29.87R
$$

CITY           SKY/WX    TMP DP  RH WIND       PRES   REMARKS
BILLINGS       MOSUNNY   92  42  17 S14G29    29.81F
GREAT FALLS    SUNNY     86  24  10 W30G40    29.87R
$$





USA.gov is the U.S. government's official web portal to all federal, state and local government web resources and services.